AAL1442 KOKC-KDFW

Flight info

Callsign AAL1442
Flight time N/A
Altitude 27000
Route MUDDE3 MUDDE RBUKL JOVEM6
Aircraft B738/M-SDE2E3FGHIRWXY/LB1

Departure

Time 2026-05-06 16:27
Airport OKC Will Rogers World Airport (KOKC)

Arrival

Time N/A
Airport Dallas Fort Worth International Airport (KDFW)
Time Latitude Longitude Altitude Speed Heading
2026-05-06 15:57 35.39472 -97.59802 1294 ft 0 kts
2026-05-06 15:58 35.39471 -97.59802 1294 ft 0 kts
2026-05-06 15:58 35.39472 -97.59802 1294 ft 0 kts
2026-05-06 15:58 35.39471 -97.59802 1294 ft 0 kts
2026-05-06 15:59 35.39472 -97.59802 1294 ft 0 kts
2026-05-06 16:00 35.39471 -97.59802 1294 ft 0 kts
2026-05-06 16:00 35.39472 -97.59802 1294 ft 0 kts
2026-05-06 16:00 35.39471 -97.59802 1294 ft 0 kts
2026-05-06 16:16 35.39462 -97.59799 1294 ft 2 kts 333°
2026-05-06 16:17 35.39447 -97.59797 1294 ft 2 kts
2026-05-06 16:17 35.39436 -97.59798 1294 ft 0 kts 358°
2026-05-06 16:17 35.39424 -97.59795 1294 ft 2 kts 322°
2026-05-06 16:17 35.39415 -97.59780 1294 ft 1 kts 281°
2026-05-06 16:18 35.39415 -97.59772 1294 ft 1 kts 264°
2026-05-06 16:18 35.39415 -97.59768 1294 ft 0 kts 269°
2026-05-06 16:20 35.39410 -97.59790 1294 ft 10 kts 244°
2026-05-06 16:20 35.39344 -97.59821 1294 ft 2 kts 181°
2026-05-06 16:21 35.39318 -97.59821 1294 ft 4 kts 180°
2026-05-06 16:21 35.39274 -97.59821 1293 ft 7 kts 180°
2026-05-06 16:21 35.39226 -97.59815 1292 ft 4 kts 124°
2026-05-06 16:21 35.39212 -97.59748 1292 ft 16 kts 87°
2026-05-06 16:22 35.39223 -97.59551 1292 ft 23 kts 87°
2026-05-06 16:22 35.39214 -97.59351 1292 ft 22 kts 92°
2026-05-06 16:22 35.39216 -97.59158 1292 ft 22 kts 88°
2026-05-06 16:22 35.39140 -97.59065 1293 ft 14 kts 184°
2026-05-06 16:23 35.39042 -97.59055 1293 ft 13 kts 176°
2026-05-06 16:23 35.38947 -97.59055 1292 ft 14 kts 182°
2026-05-06 16:23 35.38847 -97.59060 1291 ft 14 kts 182°
2026-05-06 16:23 35.38746 -97.59061 1290 ft 14 kts 179°
2026-05-06 16:24 35.38636 -97.59061 1290 ft 19 kts 181°
2026-05-06 16:24 35.38474 -97.59067 1289 ft 27 kts 180°
2026-05-06 16:24 35.38292 -97.59062 1286 ft 24 kts 180°
2026-05-06 16:24 35.38119 -97.59058 1283 ft 24 kts 180°
2026-05-06 16:25 35.37967 -97.59051 1282 ft 13 kts 156°
2026-05-06 16:25 35.37954 -97.58972 1283 ft 9 kts 89°
2026-05-06 16:25 35.37977 -97.58904 1284 ft 8 kts 347°
2026-05-06 16:25 35.38033 -97.58894 1284 ft 9 kts
2026-05-06 16:26 35.38038 -97.58894 1285 ft 0 kts 356°
2026-05-06 16:26 35.38226 -97.58892 1288 ft 68 kts
2026-05-06 16:26 35.38968 -97.58892 1295 ft 143 kts
2026-05-06 16:26 35.40145 -97.58909 1490 ft 187 kts
2026-05-06 16:27 35.41437 -97.58953 2447 ft 196 kts
2026-05-06 16:27 35.42818 -97.59338 3217 ft 219 kts 336°
2026-05-06 16:27 35.43924 -97.60737 3887 ft 245 kts 302°
2026-05-06 16:27 35.44688 -97.62633 4647 ft 256 kts 304°
2026-05-06 16:28 35.45752 -97.64415 5477 ft 262 kts 312°
2026-05-06 16:28 35.46944 -97.66081 6417 ft 265 kts 311°
2026-05-06 16:28 35.47864 -97.68017 7391 ft 266 kts 283°
2026-05-06 16:28 35.47814 -97.70195 8423 ft 263 kts 251°
2026-05-06 16:29 35.46892 -97.72053 9639 ft 256 kts 229°
2026-05-06 16:29 35.45509 -97.73373 10643 ft 259 kts 214°
2026-05-06 16:29 35.43779 -97.74203 11217 ft 281 kts 198°
2026-05-06 16:29 35.41752 -97.74224 11710 ft 311 kts 176°
2026-05-06 16:30 35.39594 -97.73421 12227 ft 334 kts 167°
2026-05-06 16:30 35.38873 -97.73077 12386 ft 340 kts 166°
2026-05-06 16:30 35.35085 -97.71164 13153 ft 366 kts 166°
2026-05-06 16:30 35.32693 -97.70003 13646 ft 378 kts 167°
2026-05-06 16:31 35.30211 -97.68851 14386 ft 383 kts 167°
2026-05-06 16:31 35.27708 -97.67719 15189 ft 385 kts 168°
2026-05-06 16:31 35.25194 -97.66600 16033 ft 386 kts 169°
2026-05-06 16:31 35.22656 -97.65480 16775 ft 390 kts 169°
2026-05-06 16:32 35.20114 -97.64363 17561 ft 391 kts 170°
2026-05-06 16:32 35.17549 -97.63237 18258 ft 395 kts 170°
2026-05-06 16:32 35.14948 -97.62097 18893 ft 400 kts 170°
2026-05-06 16:32 35.12320 -97.60943 19635 ft 401 kts 171°
2026-05-06 16:33 35.09689 -97.59792 20117 ft 409 kts 171°
2026-05-06 16:33 35.07007 -97.58613 20908 ft 409 kts 171°
2026-05-06 16:33 35.04310 -97.57438 21464 ft 413 kts 172°
2026-05-06 16:34 34.98808 -97.55571 22550 ft 408 kts 181°
2026-05-06 16:34 34.96026 -97.55034 23049 ft 407 kts 184°
2026-05-06 16:34 34.93208 -97.54703 23612 ft 402 kts 188°
2026-05-06 16:34 34.90424 -97.54678 24170 ft 399 kts 192°
2026-05-06 16:35 34.87661 -97.54823 24701 ft 400 kts 194°
2026-05-06 16:35 34.84901 -97.55033 25186 ft 403 kts 195°
2026-05-06 16:35 34.82084 -97.55257 25698 ft 407 kts 195°
2026-05-06 16:35 34.79216 -97.55468 26252 ft 410 kts 194°
2026-05-06 16:36 34.76408 -97.55651 26807 ft 412 kts 194°
2026-05-06 16:36 34.73517 -97.55826 27042 ft 417 kts 194°
2026-05-06 16:36 34.70633 -97.55987 27049 ft 414 kts 193°
2026-05-06 16:36 34.67752 -97.56128 27049 ft 409 kts 193°
2026-05-06 16:37 34.64909 -97.56265 27049 ft 409 kts 194°
2026-05-06 16:37 34.62090 -97.56406 27048 ft 411 kts 193°
2026-05-06 16:37 34.59197 -97.56551 27048 ft 413 kts 193°
2026-05-06 16:37 34.56344 -97.56693 27046 ft 412 kts 193°
2026-05-06 16:38 34.53490 -97.56834 27046 ft 412 kts 193°
2026-05-06 16:38 34.50621 -97.56972 27045 ft 411 kts 193°
2026-05-06 16:38 34.47755 -97.57110 27043 ft 410 kts 193°
2026-05-06 16:38 34.44912 -97.57252 27042 ft 413 kts 193°
2026-05-06 16:39 34.42020 -97.57394 27042 ft 412 kts 193°
2026-05-06 16:39 34.39187 -97.57533 27041 ft 411 kts 193°
2026-05-06 16:39 34.36295 -97.57674 27039 ft 413 kts 193°
2026-05-06 16:39 34.33441 -97.57816 27038 ft 413 kts 193°
2026-05-06 16:40 34.30575 -97.57958 27041 ft 414 kts 193°
2026-05-06 16:40 34.27725 -97.58094 27037 ft 411 kts 193°
2026-05-06 16:40 34.24839 -97.58235 27037 ft 413 kts 193°
2026-05-06 16:40 34.21988 -97.58373 27038 ft 410 kts 193°
2026-05-06 16:41 34.19105 -97.58513 27039 ft 412 kts 193°
2026-05-06 16:41 34.16262 -97.58654 27035 ft 413 kts 193°
2026-05-06 16:41 34.13383 -97.58794 27035 ft 412 kts 193°
2026-05-06 16:41 34.10524 -97.58935 27036 ft 414 kts 193°
2026-05-06 16:42 34.07646 -97.59076 27034 ft 412 kts 193°
2026-05-06 16:42 34.04778 -97.59213 27034 ft 412 kts 193°
2026-05-06 16:42 34.01934 -97.59350 27034 ft 412 kts 193°
2026-05-06 16:42 33.99063 -97.59490 27029 ft 414 kts 193°
2026-05-06 16:43 33.96190 -97.59630 27026 ft 412 kts 193°
2026-05-06 16:43 33.93281 -97.59772 27029 ft 415 kts 192°
2026-05-06 16:43 33.90408 -97.59911 27027 ft 413 kts 193°
2026-05-06 16:43 33.87554 -97.60050 27027 ft 413 kts 193°
2026-05-06 16:44 33.84698 -97.60234 27026 ft 409 kts 194°
2026-05-06 16:44 33.81808 -97.60471 27027 ft 414 kts 194°
2026-05-06 16:44 33.78947 -97.60727 27024 ft 410 kts 194°
2026-05-06 16:44 33.76109 -97.60980 27025 ft 410 kts 194°
2026-05-06 16:45 33.73254 -97.61237 27021 ft 413 kts 194°
2026-05-06 16:45 33.70384 -97.61490 27024 ft 412 kts 194°
2026-05-06 16:45 33.67556 -97.61734 27023 ft 412 kts 195°
2026-05-06 16:45 33.64673 -97.61980 27020 ft 413 kts 194°
2026-05-06 16:46 33.61807 -97.62221 27010 ft 409 kts 194°
2026-05-06 16:46 33.59019 -97.62444 26867 ft 397 kts 194°
2026-05-06 16:46 33.56280 -97.62660 26210 ft 395 kts 195°
2026-05-06 16:46 33.53520 -97.62899 24892 ft 409 kts 194°
2026-05-06 16:47 33.50650 -97.63163 23544 ft 422 kts 194°
2026-05-06 16:47 33.47793 -97.63415 22415 ft 412 kts 193°
2026-05-06 16:47 33.44950 -97.63603 21501 ft 402 kts 191°
2026-05-06 16:47 33.42202 -97.63467 20722 ft 396 kts 183°
2026-05-06 16:48 33.39505 -97.62723 20031 ft 398 kts 171°
2026-05-06 16:48 33.36999 -97.61372 19456 ft 398 kts 161°
2026-05-06 16:48 33.34694 -97.59598 18954 ft 390 kts 154°
2026-05-06 16:48 33.32609 -97.57572 18309 ft 386 kts 149°
2026-05-06 16:49 33.30673 -97.55394 17730 ft 386 kts 145°
2026-05-06 16:49 33.28773 -97.53114 17224 ft 384 kts 144°
2026-05-06 16:49 33.26943 -97.50868 16947 ft 373 kts 144°
2026-05-06 16:49 33.25177 -97.48703 16474 ft 362 kts 144°
2026-05-06 16:50 33.23416 -97.46575 15818 ft 354 kts 144°
2026-05-06 16:50 33.21695 -97.44533 15175 ft 347 kts 144°
2026-05-06 16:50 33.20000 -97.42541 14495 ft 340 kts 143°
2026-05-06 16:50 33.18891 -97.41246 14048 ft 337 kts 143°
2026-05-06 16:51 33.16682 -97.38670 13134 ft 329 kts 142°
2026-05-06 16:51 33.15035 -97.36754 12553 ft 327 kts 142°
2026-05-06 16:51 33.13433 -97.34886 12353 ft 317 kts 143°
2026-05-06 16:51 33.11898 -97.33086 12237 ft 304 kts 142°
2026-05-06 16:52 33.10420 -97.31351 12080 ft 294 kts 143°
2026-05-06 16:52 33.08975 -97.29660 12073 ft 288 kts 143°
2026-05-06 16:52 33.07527 -97.27980 12084 ft 291 kts 143°
2026-05-06 16:52 33.06074 -97.26297 12086 ft 291 kts 143°
2026-05-06 16:53 33.04633 -97.24623 12091 ft 293 kts 143°
2026-05-06 16:53 33.03178 -97.22927 12094 ft 290 kts 142°
2026-05-06 16:53 33.01725 -97.21233 12097 ft 289 kts 143°
2026-05-06 16:53 33.00318 -97.19589 12091 ft 279 kts 143°
2026-05-06 16:54 32.98927 -97.18052 12082 ft 262 kts 150°
2026-05-06 16:54 32.97413 -97.17024 12063 ft 241 kts 172°
2026-05-06 16:54 32.95786 -97.16785 11858 ft 234 kts 186°
2026-05-06 16:54 32.94171 -97.16793 11616 ft 231 kts 186°
2026-05-06 16:55 32.92561 -97.16775 11377 ft 231 kts 185°
2026-05-06 16:55 32.90936 -97.16707 11136 ft 232 kts 184°
2026-05-06 16:55 32.89328 -97.16618 10895 ft 232 kts 183°
2026-05-06 16:55 32.87705 -97.16525 10650 ft 233 kts 183°
2026-05-06 16:56 32.86091 -97.16434 10402 ft 231 kts 183°
2026-05-06 16:56 32.84475 -97.16347 10160 ft 231 kts 183°
2026-05-06 16:56 32.82887 -97.16260 9920 ft 230 kts 183°
2026-05-06 16:56 32.81265 -97.16170 9668 ft 230 kts 182°
2026-05-06 16:57 32.79676 -97.16093 9416 ft 229 kts 184°
2026-05-06 16:57 32.78088 -97.16080 9166 ft 227 kts 185°
2026-05-06 16:57 32.76508 -97.16098 8916 ft 227 kts 185°
2026-05-06 16:57 32.74926 -97.16108 8663 ft 226 kts 185°
2026-05-06 16:58 32.73365 -97.16106 8414 ft 224 kts 184°
2026-05-06 16:58 32.71804 -97.16107 8162 ft 224 kts 185°
2026-05-06 16:58 32.70239 -97.16112 7912 ft 223 kts 184°
2026-05-06 16:58 32.68682 -97.16115 7658 ft 222 kts 184°
2026-05-06 16:59 32.67147 -97.16118 7409 ft 221 kts 184°
2026-05-06 16:59 32.65626 -97.16117 7159 ft 220 kts 183°
2026-05-06 16:59 32.64087 -97.16116 6904 ft 219 kts 183°
2026-05-06 16:59 32.62558 -97.16115 6652 ft 218 kts 183°